Weather History for Weatherford, OK

Change the Weather History Date:

Friday, December 27, 2013

  Actual Average (KJWG) Record (KJWG)
Temperature  
Mean Temperature 40 °F -  
Max Temperature 55 °F 49 °F 69 °F (1976)
Min Temperature 26 °F 26 °F 15 °F (1962)
Degree Days  
Heating Degree Days 24    
Moisture  
Dew Point 30 °F    
Average Humidity 69    
Maximum Humidity 93    
Minimum Humidity 41    
Precipitation  
Precipitation 0.00 in - - ()
Sea Level Pressure  
Sea Level Pressure 30.32 in    
Wind  
Wind Speed 3 mph (SSW)    
Max Wind Speed 10 mph    
Max Gust Speed -    
Visibility 10 miles    
Events      
Averages and records for this station are not official NWS values.
T = Trace of Precipitation, MM = Missing Value Source: NWS Daily Summary

Daily Weather History Graph

Daily Weather History Graph

Search for Another Location

Airport:

Trip Planner

Search our weather history database for the weather conditions in past years. The results will help you decide how hot, cold, wet, or windy it might be!

Date:

Astronomy

Dec. 27, 2013 Rise Set
Actual Time 7:42 AM CST 5:29 PM CST
Civil Twilight 7:14 AM CST 5:57 PM CST
Nautical Twilight 6:42 AM CST 6:29 PM CST
Astronomical Twilight 6:11 AM CST 7:00 PM CST
Moon 2:22 AM CST (12/27) 1:34 PM CST (12/27)
Length of Visible Light 10h 42m
Length of Day
9h 46m
Waning Crescent, 28% of the Moon is Illuminated
Dec 27
Waning Crescent
Jan 1
New
Jan 7
First Quarter
Jan 15
Full
Jan 23
Last Quarter

Hourly Weather History & Observations

Time (CST) Temp. Windchill Dew Point Humidity Pressure Visibility Wind Dir Wind Speed Gust Speed Precip Events Conditions
12:15 AM 35.6 °F 32.8 °F 28.4 °F 75% 30.34 in 10.0 mi SSW 3.5 mph - N/A   Clear
12:35 AM 32.0 °F - 28.4 °F 87% 30.34 in 10.0 mi Calm Calm - N/A   Clear
12:55 AM 33.8 °F - 28.4 °F 81% 30.33 in 10.0 mi Calm Calm - N/A   Clear
1:15 AM 35.6 °F 32.8 °F 28.4 °F 75% 30.33 in 10.0 mi SSW 3.5 mph - N/A   Clear
1:35 AM 32.0 °F - 26.6 °F 80% 30.33 in 10.0 mi Calm Calm - N/A   Clear
1:55 AM 32.0 °F - 26.6 °F 80% 30.33 in 10.0 mi Calm Calm - N/A   Clear
2:15 AM 32.0 °F - 26.6 °F 80% 30.33 in 10.0 mi Calm Calm - N/A   Clear
2:35 AM 33.8 °F - 28.4 °F 81% 30.33 in 10.0 mi Calm Calm - N/A   Clear
2:55 AM 32.0 °F - 26.6 °F 80% 30.33 in 10.0 mi Calm Calm - N/A   Clear
3:15 AM 33.8 °F - 28.4 °F 81% 30.33 in 10.0 mi Calm Calm - N/A   Clear
3:35 AM 32.0 °F - 26.6 °F 80% 30.33 in 10.0 mi Calm Calm - N/A   Clear
3:55 AM 33.8 °F 29.6 °F 28.4 °F 81% 30.33 in 10.0 mi SSW 4.6 mph - N/A   Clear
4:15 AM 33.8 °F 29.6 °F 28.4 °F 81% 30.33 in 10.0 mi SW 4.6 mph - N/A   Clear
4:35 AM 32.0 °F - 26.6 °F 80% 30.33 in 10.0 mi Calm Calm - N/A   Clear
4:55 AM 30.2 °F - 24.8 °F 80% 30.33 in 10.0 mi Calm Calm - N/A   Clear
5:15 AM 30.2 °F - 26.6 °F 86% 30.33 in 10.0 mi Calm Calm - N/A   Clear
5:35 AM 32.0 °F - 26.6 °F 80% 30.34 in 10.0 mi Calm Calm - N/A   Clear
5:55 AM 32.0 °F - 26.6 °F 80% 30.34 in 10.0 mi Calm Calm - N/A   Clear
6:15 AM 32.0 °F 28.7 °F 26.6 °F 80% 30.33 in 10.0 mi SW 3.5 mph - N/A   Clear
6:35 AM 32.0 °F - 26.6 °F 80% 30.33 in 10.0 mi Calm Calm - N/A   Clear
6:55 AM 30.2 °F - 26.6 °F 86% 30.34 in 10.0 mi Calm Calm - N/A   Clear
7:15 AM 28.4 °F 24.6 °F 24.8 °F 86% 30.34 in 10.0 mi NNW 3.5 mph - N/A   Clear
7:35 AM 26.6 °F - 24.8 °F 93% 30.34 in 10.0 mi Calm Calm - N/A   Clear
7:55 AM 28.4 °F - 24.8 °F 86% 30.34 in 10.0 mi Calm Calm - N/A   Clear
8:15 AM 30.2 °F - 26.6 °F 86% 30.34 in 10.0 mi Calm Calm - N/A   Clear
8:35 AM 30.2 °F - 26.6 °F 86% 30.35 in 10.0 mi Calm Calm - N/A   Clear
8:55 AM 32.0 °F - 28.4 °F 87% 30.35 in 10.0 mi Calm Calm - N/A   Clear
9:15 AM 32.0 °F - 28.4 °F 87% 30.36 in 10.0 mi Calm Calm - N/A   Clear
9:35 AM 33.8 °F - 30.2 °F 87% 30.36 in 10.0 mi Calm Calm - N/A   Clear
9:55 AM 35.6 °F - 32.0 °F 87% 30.38 in 10.0 mi Calm Calm - N/A   Clear
10:15 AM 39.2 °F - 32.0 °F 75% 30.38 in 10.0 mi Calm Calm - N/A   Clear
10:35 AM 42.8 °F - 32.0 °F 66% 30.38 in 10.0 mi Calm Calm - N/A   Clear
10:55 AM 44.6 °F - 32.0 °F 61% 30.38 in 10.0 mi Calm Calm - N/A   Clear
11:15 AM 44.6 °F 43.1 °F 32.0 °F 61% 30.37 in 10.0 mi WSW 3.5 mph - N/A   Clear
11:35 AM 46.4 °F - 33.8 °F 62% 30.37 in 10.0 mi Calm Calm - N/A   Clear
11:55 AM 50.0 °F - 33.8 °F 54% 30.36 in 10.0 mi Calm Calm - N/A   Clear
12:15 PM 51.8 °F - 32.0 °F 47% 30.35 in 10.0 mi South 6.9 mph - N/A   Clear
12:35 PM 51.8 °F - 33.8 °F 50% 30.34 in 10.0 mi SW 5.8 mph - N/A   Clear
12:55 PM 51.8 °F - 32.0 °F 47% 30.33 in 10.0 mi SSW 6.9 mph - N/A   Clear
1:15 PM 51.8 °F - 32.0 °F 47% 30.33 in 10.0 mi SSW 9.2 mph - N/A   Clear
1:35 PM 51.8 °F - 33.8 °F 50% 30.32 in 10.0 mi SW 9.2 mph - N/A   Clear
1:55 PM 53.6 °F - 33.8 °F 47% 30.32 in 10.0 mi SSW 10.4 mph - N/A   Clear
2:15 PM 53.6 °F - 33.8 °F 47% 30.31 in 10.0 mi South 9.2 mph - N/A   Clear
2:35 PM 53.6 °F - 33.8 °F 47% 30.30 in 10.0 mi SSW 5.8 mph - N/A   Clear
2:55 PM 55.4 °F - 32.0 °F 41% 30.30 in 10.0 mi SSW 9.2 mph - N/A   Clear
3:15 PM 55.4 °F - 32.0 °F 41% 30.30 in 10.0 mi SSW 10.4 mph - N/A   Clear
3:35 PM 55.4 °F - 32.0 °F 41% 30.30 in 10.0 mi SSW 10.4 mph - N/A   Clear
3:55 PM 55.4 °F - 33.8 °F 44% 30.30 in 10.0 mi SSW 9.2 mph - N/A   Clear
4:15 PM 55.4 °F - 32.0 °F 41% 30.30 in 10.0 mi SSW 10.4 mph - N/A   Clear
4:35 PM 55.4 °F - 32.0 °F 41% 30.30 in 10.0 mi SSW 8.1 mph - N/A   Clear
4:55 PM 53.6 °F - 33.8 °F 47% 30.30 in 10.0 mi SSW 9.2 mph - N/A   Clear
5:15 PM 51.8 °F - 32.0 °F 47% 30.30 in 10.0 mi SSW 6.9 mph - N/A   Clear
5:35 PM 50.0 °F - 32.0 °F 50% 30.30 in 10.0 mi SSW 5.8 mph - N/A   Clear
5:55 PM 48.2 °F - 32.0 °F 54% 30.30 in 10.0 mi SSW 6.9 mph - N/A   Clear
6:15 PM 46.4 °F 42.9 °F 32.0 °F 57% 30.30 in 10.0 mi SSW 6.9 mph - N/A   Clear
6:35 PM 44.6 °F 40.7 °F 32.0 °F 61% 30.30 in 10.0 mi SSW 6.9 mph - N/A   Clear
6:55 PM 42.8 °F 38.6 °F 32.0 °F 66% 30.29 in 10.0 mi SSW 6.9 mph - N/A   Clear
7:15 PM 42.8 °F 38.6 °F 32.0 °F 66% 30.29 in 10.0 mi SSW 6.9 mph - N/A   Clear
7:35 PM 41.0 °F 36.4 °F 32.0 °F 70% 30.29 in 10.0 mi SSW 6.9 mph - N/A   Clear
7:55 PM 42.8 °F 39.3 °F 32.0 °F 66% 30.29 in 10.0 mi SSW 5.8 mph - N/A   Clear
8:15 PM 41.0 °F 37.1 °F 32.0 °F 70% 30.29 in 10.0 mi SSW 5.8 mph - N/A   Clear
8:35 PM 41.0 °F 36.4 °F 32.0 °F 70% 30.29 in 10.0 mi SSW 6.9 mph - N/A   Clear
8:55 PM 41.0 °F 35.8 °F 32.0 °F 70% 30.29 in 10.0 mi SSW 8.1 mph - N/A   Clear
9:15 PM 41.0 °F 35.8 °F 32.0 °F 70% 30.29 in 10.0 mi SSW 8.1 mph - N/A   Clear
9:35 PM 37.4 °F 32.1 °F 32.0 °F 81% 30.28 in 10.0 mi SSW 6.9 mph - N/A   Clear
9:55 PM 39.2 °F 33.6 °F 32.0 °F 75% 30.28 in 10.0 mi SSW 8.1 mph - N/A   Clear
10:15 PM 37.4 °F 31.4 °F 32.0 °F 81% 30.28 in 10.0 mi SSW 8.1 mph - N/A   Clear
10:35 PM 39.2 °F 34.2 °F 32.0 °F 75% 30.28 in 10.0 mi SSW 6.9 mph - N/A   Clear
10:55 PM 39.2 °F 35.0 °F 30.2 °F 70% 30.28 in 10.0 mi SSW 5.8 mph - N/A   Clear
11:15 PM 37.4 °F 31.4 °F 30.2 °F 75% 30.27 in 10.0 mi SSW 8.1 mph - N/A   Clear
11:35 PM 37.4 °F 31.4 °F 30.2 °F 75% 30.26 in 10.0 mi SSW 8.1 mph - N/A   Clear
11:55 PM 35.6 °F 28.6 °F 30.2 °F 81% 30.25 in 10.0 mi SSW 9.2 mph - N/A   Clear